This is the latest recevied weather packets stored in our database for station/object s59zo-6. If no packets are shown the sender has not sent any weather packets the latest 10 day(s).
| Time | Temp. | Humidity | Pressure | Rain* | Wind** | Luminosity | Snow |
|---|---|---|---|---|---|---|---|
| 1787395205 | 18.33° C | 88% | 1020 hPa | 3.05 mm | - | - | - |
| 1787394904 | 18.33° C | 89% | 1020 hPa | 3.05 mm | - | - | - |
| 1787394604 | 18.33° C | 89% | 1019.8 hPa | 3.05 mm | - | - | - |
| 1787394304 | 18.33° C | 89% | 1019.7 hPa | 2.79 mm | - | - | - |
| 1787394004 | 18.33° C | 88% | 1019.8 hPa | 2.29 mm | - | - | - |
| 1787393704 | 18.33° C | 88% | 1019.9 hPa | 2.29 mm | - | - | - |
| 1787393405 | 18.33° C | 88% | 1019.8 hPa | 2.29 mm | - | - | - |
| 1787393104 | 18.33° C | 87% | 1019.7 hPa | 2.79 mm | - | - | - |
| 1787392804 | 18.33° C | 87% | 1019.7 hPa | 3.3 mm | - | - | - |
| 1787392504 | 18.33° C | 87% | 1019.8 hPa | 2.79 mm | - | - | - |
| 1787392205 | 18.33° C | 87% | 1019.8 hPa | 3.05 mm | - | - | - |
| 1787391904 | 18.33° C | 88% | 1019.6 hPa | 2.79 mm | - | - | - |
| 1787391604 | 18.33° C | 88% | 1019.7 hPa | 2.79 mm | - | - | - |
| 1787391304 | 18.33° C | 87% | 1019.5 hPa | 2.79 mm | - | - | - |
| 1787391005 | 18.33° C | 87% | 1019.5 hPa | 2.79 mm | - | - | - |
| 1787390704 | 18.33° C | 87% | 1019.5 hPa | 2.79 mm | - | - | - |
| 1787390404 | 18.33° C | 87% | 1019.4 hPa | 2.79 mm | - | - | - |
| 1787390104 | 17.78° C | 87% | 1019.3 hPa | 2.79 mm | - | - | - |
| 1787389805 | 18.33° C | 87% | 1019.3 hPa | 3.05 mm | - | - | - |
| 1787389504 | 18.33° C | 87% | 1019.3 hPa | 3.05 mm | - | - | - |
| 1787389204 | 18.33° C | 86% | 1019.3 hPa | 2.29 mm | - | - | - |
| 1787388904 | 18.33° C | 87% | 1019.3 hPa | 2.29 mm | - | - | - |
| 1787388605 | 18.89° C | 87% | 1019.1 hPa | 2.03 mm | - | - | - |
| 1787388304 | 18.89° C | 87% | 1019.1 hPa | 2.03 mm | - | - | - |
| 1787388004 | 18.89° C | 87% | 1018.8 hPa | 2.03 mm | - | - | - |
* Rain latest hour (hover to see other rain measurements)
** Current wind speed in m/s (hover to see current wind gust speed)